Find Starlink 32724

NORAD ID: 62441 Int'l Des: 2024-251 Owner: SPXS Country: US Constellation: starlink operational
LEOCIRCULAR

現在のビュー

3D地球を読み込み中...

About Starlink 32724

Starlink 32724 (NORAD 62441) is a starlink constellation satellite (v2 mini) launched Dec 29, 2024 by SPXS of US. It operates in LEO, CIRCULAR orbit with a mass of 730.00 kg.

Starlink 32724について

説明を読み込み中...

次回通過

Passes for default location (London). Set your location on the main map for personalized predictions.

高度履歴

Loading altitude history...

軌道要素

1 62441U 24251K 26170.16668980 .00026360 00000-0 78940-3 0 9999
2 62441 53.1597 223.7326 0001241 64.3146 97.9504 15.34366585 5809
Epoch: Jun 19, 2026 • Age: 6 hours

現在のステータス

高度 466.5 km
速度 7.64 km/s
衛星直下点 42.84°N, 59.98°W
打ち上げ日 Dec 29, 2024
運用期間 1.4 years
タイプ internet

技術仕様

分類 Payload
質量 730.00 kg
乾燥質量 700.00 kg
総質量 730.00 kg
長さ 0.30 m
直径 4.10 m
スパン 29.00 m
形状 Box + pan
製造者 SPXS
バスタイプ Starlink V2M
フェーズステータス In Orbit
所有者/国 SPXS/US

Most Searched